Flag for U.S.A. Weather past 2 weeks in Barnstable, Massachusetts, U.S.A.

Now
75 °F

Clear.


Feels Like: 76 °F
Forecast: 73 / 83 °F
Wind: 8 mph from Southwest

Location: Barnstable Municipal-Boardman Airport

Current Time: Jul 30, 2015 at 12:48:10 AM

Latest Report: Jul 29, 2015 at 11:56 PM


Visibility: 9 mi

Pressure: 29.91 "Hg

Humidity: 79%

Dew point: 68 °F

Location of BarnstableLocation

Historic Weather in Barnstable — Graph

°F

Barnstable temperature yesterday

Maximum temperature yesterday: 89 °F (at 2:56 PM)
Minimum temperature yesterday: 65 °F (at 5:56 AM)
Average temperature yesterday: 78 °F

Past Weeks' High & Low Weather Summary

 TemperatureHumidityPressure
High89 °F (Jul 20, 10:56 AM)97% (Jul 15, 3:56 AM)30.12 "Hg (Jul 15, 3:56 AM)
Low52 °F (Jul 17, 2:56 AM)42% (Jul 22, 3:56 PM)29.54 "Hg (Jul 22, 1:56 AM)
Average73 °F76%29.87 "Hg
* Reported Jul 14 10:56 PM — Jul 29 10:56 PM, Barnstable, Weather by CustomWeather, © 2015

Note: Actual official high and low records may vary slightly from our data, if they occured in-between our weather recording intervals... More about our weather records

Advertising

Barnstable weather history for previous 24 hours

 ConditionsComfort  
Time TempWeatherWind HumidityBarometerVisibility
10:56 PM
Wed, Jul 29
76 °FClear.9 mph77%29.91 "Hg10 mi
9:56 PM76 °FClear.7 mph77%29.91 "Hg10 mi
8:56 PM78 °FSunny.9 mph74%29.90 "Hg10 mi
7:56 PM79 °FSunny.12 mph72%29.90 "Hg8 mi
6:56 PM82 °FSunny.15 mph65%29.89 "Hg8 mi
5:56 PM84 °FSunny.10 mph59%29.90 "Hg10 mi
4:56 PM86 °FSunny.13 mph51%29.90 "Hg10 mi
3:56 PM86 °FSunny.13 mph55%29.91 "Hg10 mi
2:56 PM89 °FSunny.N/A45%29.93 "Hg10 mi
1:56 PM88 °FHot.N/A48%29.93 "Hg10 mi
12:56 PM88 °FSunny.N/A46%29.93 "Hg10 mi
11:56 AM88 °FSunny.N/A52%29.94 "HgN/A
10:56 AMN/ASunny.N/AN/A29.96 "HgN/A
9:56 AM84 °FSunny.N/A57%29.95 "HgN/A
8:56 AM82 °FSunny.5 mph63%29.96 "Hg10 mi
7:56 AM78 °FSunny.No wind76%29.96 "Hg10 mi
6:56 AM70 °FMild.No wind90%29.95 "Hg8 mi
5:56 AM65 °FClear.No wind94%29.94 "Hg10 mi
4:56 AM66 °FClear.No wind93%29.93 "Hg9 mi
3:56 AM67 °FFog.No wind97%29.92 "Hg5 mi
2:56 AM69 °FClear.5 mph93%29.92 "Hg7 mi
1:56 AM69 °FClear.3 mph93%29.93 "Hg7 mi
12:56 AM70 °FClear.No wind93%29.95 "Hg7 mi
Weather by CustomWeather, © 2015

See weather overviewHow to use our weather pages